Simultaneous Nadir Overpasses (SNOs) Predictions

Prediction of SNOs between METOP-C and LANDSAT-8 Satellite Orbit:

Table of predicted SNOs for the next 14.0 days since TLE Epoch: 10/31/2020
Index Date (METOP-C) Time (METOP-C) Lat,Lon (METOP-C) SZA (METOP-C ) Date (LANDSAT-8) Time (LANDSAT-8) Lat,Lon (LANDSAT-8) SZA (LANDSAT-8 ) Distance(km) Time Diff (sec)
1 10/31/2020 09:59:24 -81.07,-110.80 82.31 10/31/2020 10:00:06 -81.07,-110.89 82.30 1.54 42
2 10/31/2020 10:50:02 81.10, 57.28 97.81 10/31/2020 10:49:31 81.10, 57.25 97.79 0.69 31
3 11/03/2020 05:33:49 -81.06, -44.61 81.45 11/03/2020 05:34:21 -81.06, -44.52 81.43 1.61 32
4 11/03/2020 06:24:27 81.09, 123.49 98.67 11/03/2020 06:23:46 81.09, 123.59 98.66 1.80 41
5 11/06/2020 01:08:11 -81.08, 22.30 80.53 11/06/2020 01:08:34 -81.08, 22.18 80.54 2.13 23
6 11/06/2020 01:58:49 81.11,-169.58 99.59 11/06/2020 01:57:59 81.11,-169.74 99.55 2.79 50
7 11/08/2020 20:42:36 -81.07, 88.44 79.75 11/08/2020 20:42:49 -81.07, 88.48 79.75 0.60 13
8 11/08/2020 21:33:14 81.10,-103.41 100.37 11/08/2020 21:32:14 81.10,-103.47 100.33 1.00 60
9 11/11/2020 16:17:00 -81.07, 154.94 78.97 11/11/2020 16:17:03 -81.08, 155.10 78.95 2.98 3
